Location: Peterborough
(44.3091°N, 78.3197°W)
Time: 05:22:33
(UTC-04:00)

Vanguard 1 Rocket - Pass Details

Date: 22 March 2023
Orbit: 655 x 4220 km, 34.3° (Epoch: 04 June)

Event Time Altitude Azimuth Distance (km) Brightness Sun altitude
Rises 03:30:00 0° 261° (W) 7,143 - -36.7°
Reaches altitude 10° 03:35:43 10° 257° (WSW) 5,554 - -36.0°
Maximum altitude 03:49:16 48° 190° (S) 2,093 - -34.2°
Exits shadow 03:51:55 39° 149° (SSE) 2,077 9.0 -33.9°
Drops below altitude 10° 03:56:27 10° 118° (ESE) 3,020 10.2 -33.3°
Sets 03:58:39 0° 112° (ESE) 3,716 10.9 -33.0°
